GFSNW_850_dewp_024.txt.gz
Dewpoint
1 1 0 0 -0 -1 2 2 -2 3 -3 -2 2 3 4 3 -2 -1 1 0 -1 -1 2 3 3 3 2 1 2 -1 -0 1 2 -1 -2 -1 -2 -0 -1 1 0 2 2 1
1 1 0 0 -0 -1 1 -1 7 5 -2 -0 2 1 2 0 -2 -0 0 1 1 2 4 4 4 3 1 -2 -0 -0 -1 1 3 1 -1 -3 -0 1 1 -0 1 2 1 0
1 1 0 0 -1 -1 2 1 6 6 4 -4 -1 1 2 1 0 0 0 1 1 2 4 4 5 4 2 -2 -1 1 -1 1 -0 1 -2 -1 -2 -0 1 -0 2 1 1 -2
1 1 1 -0 -1 -1 2 1 3 3 4 5 -0 1 1 2 1 0 -0 1 1 2 4 4 4 3 1 -2 0 2 -1 1 0 1 1 -1 -3 -2 1 0 -1 0 -1 -0
1 1 1 -1 -1 -0 5 5 1 -0 1 4 3 3 3 2 1 1 1 1 2 1 3 2 4 2 -1 -6 2 2 1 1 -2 2 2 1 1 -2 -2 -1 -1 0 0 0
1 2 1 -1 -1 -0 4 5 2 -1 2 3 3 4 3 2 2 2 1 1 2 2 2 2 2 -0 -0 -0 2 3 1 1 -2 -3 0 -1 -2 -1 -0 -0 -1 -1 1 -1
1 2 2 -0 -1 -1 2 4 3 1 1 1 3 3 2 2 1 3 2 1 1 2 2 1 1 2 3 3 3 1 1 -0 -3 -2 -3 -4 -4 -3 -1 -1 -1 -2 0 0
2 3 3 0 -2 -0 1 4 5 2 1 -0 1 4 5 4 4 4 4 3 1 0 -3 -0 0 -0 -0 1 3 1 -1 -1 1 -2 -1 -4 -7 -4 0 0 -1 1 1 1
2 4 3 1 -2 -0 1 4 5 2 2 3 1 4 3 3 3 3 5 3 0 1 -2 -2 -1 -0 -1 1 3 2 -1 -3 -2 -1 -4 -6 -6 -3 -1 -2 2 -1 1 1
3 3 3 0 -2 -1 0 3 4 2 5 6 3 3 3 2 3 3 4 3 3 -0 -2 -2 -1 -1 -2 1 1 3 1 0 -2 -3 -3 -2 -5 -1 -2 1 -1 0 1 1
3 3 2 -1 -1 -1 3 4 4 2 5 6 5 3 2 2 2 3 4 3 3 0 -0 -1 -0 -1 1 1 0 3 3 3 1 -0 -2 0 -4 -0 0 -1 -4 -3 -1 -0
3 4 4 2 0 3 3 3 2 2 3 5 5 5 3 1 1 2 4 2 3 1 0 -2 -1 0 1 0 2 0 2 0 1 -0 1 -4 -3 -1 -1 -2 -3 -2 -2 -2
1 3 3 3 2 2 1 2 1 1 5 5 5 6 5 3 2 2 2 1 2 1 -2 -0 -1 -2 -0 1 2 2 1 -1 -0 -0 -2 -1 -2 -3 -2 -1 -1 -1 -1 -0
-3 1 3 2 -0 -1 -1 1 -0 -2 -1 3 5 5 6 6 4 2 1 1 0 -0 -0 1 -0 -2 0 -1 -0 1 1 0 0 0 -0 -1 -2 -2 -2 -2 -2 -1 -0 1
-5 -5 -2 2 2 1 1 0 -1 -3 -4 3 5 4 4 5 6 5 4 2 1 1 2 1 1 -1 0 1 1 1 0 0 1 1 -4 -2 -3 -3 -2 0 0 1 2 3
-5 -5 -4 -2 -1 -1 -1 -1 1 -1 -3 -1 3 4 5 4 5 5 4 4 4 4 4 3 2 1 1 3 4 1 -0 -1 -2 -2 -2 -1 0 0 1 2 2 3 3 2
-4 -5 -5 -5 -5 -5 -7 -4 2 2 -1 -2 3 3 5 5 6 6 6 6 5 5 4 3 3 4 2 2 1 0 -0 -0 -0 0 1 2 1 1 1 2 3 2 2 -0
-3 -4 -5 -5 -5 -5 -1 1 4 3 -1 -1 1 0 4 5 6 6 5 6 6 6 5 4 3 3 2 3 3 3 3 2 2 2 3 3 3 3 3 3 3 -2 -6 -1
-2 -2 -3 -3 -3 -1 3 3 3 3 -1 2 0 0 1 5 5 4 5 5 4 4 3 3 4 2 3 2 1 2 2 2 3 3 3 3 3 2 -1 -2 -4 -1 -0 -3
0 -0 -0 1 2 2 3 3 2 3 4 4 1 2 2 3 4 3 3 3 3 4 2 4 2 3 1 -1 -0 1 2 1 2 3 1 0 -2 -2 -1 -0 -1 -2 -2 -2
1 1 2 4 4 2 2 3 2 3 3 3 3 3 2 3 3 2 2 2 1 3 1 3 2 2 -1 -2 -0 1 2 2 2 2 0 -0 -0 -1 -2 -2 -3 -4 -7 -14
2 2 4 3 3 3 1 1 2 2 2 2 3 3 3 3 3 2 2 1 1 3 1 2 3 -1 -1 -1 0 0 0 0 -0 -1 -1 -1 -2 -3 -4 -5 -6 -9 -13 -16
3 3 3 2 2 3 3 4 3 2 1 2 2 1 2 3 2 1 1 3 2 1 2 2 1 -1 -1 -1 -1 -1 -1 -1 -1 -1 -1 -2 -4 -5 -6 -8 -14 -16 -15 -13
3 2 2 1 1 0 0 1 0 -0 0 1 2 1 1 1 1 0 3 0 0 2 1 -0 -1 -2 -2 -3 -4 -1 -2 -3 -7 -8 -8 -9 -11 -14 -15 -15 -14 -14 -13 -12
1 0 -0 -1 -2 -1 -1 -1 -0 -0 0 1 1 0 1 -0 0 -1 -0 0 0 -2 -3 -0 -2 -2 -3 -3 -3 -2 -4 -5 -5 -5 -6 -7 -10 -13 -12 -12 -10 -10 -11 -11
-1 -1 -1 -2 -1 -1 -1 -1 -1 -0 0 0 0 -0 -2 -1 -0 -1 0 -1 -2 -1 -1 -1 -1 -1 -1 -3 -4 -5 -5 -5 -5 -7 -10 -11 -10 -11 -11 -11 -10 -10 -10 -9
-2 -1 -1 -1 -1 -1 -1 -1 -1 -0 -0 -0 -1 -2 -2 -2 -2 -1 -1 -3 -1 -1 -1 -1 -1 -1 -3 -6 -7 -10 -10 -10 -10 -10 -9 -9 -9 -8 -7 -8 -8 -7 -8 -7

GFSNW_850_dewp_027.txt.gz
Dewpoint
2 1 2 2 2 1 1 5 1 5 1 -1 1 2 1 3 -1 -0 0 -1 -0 0 1 3 3 3 1 1 2 1 -0 2 4 -1 -1 -1 -1 0 0 2 1 3 2 1
2 2 1 2 2 1 2 3 7 6 2 2 3 1 2 1 -2 -0 0 2 1 2 4 4 4 3 1 -1 -0 2 0 2 4 2 -1 -2 0 1 -0 0 2 3 7 -1
2 2 1 2 1 1 4 3 7 7 2 -4 -0 2 1 1 0 0 0 2 2 4 4 4 5 4 1 -2 0 0 -1 1 1 2 -1 -0 -0 2 -0 0 3 1 2 -1
2 1 2 1 1 1 4 3 4 5 5 2 -1 -1 2 2 2 0 -0 1 1 3 5 4 4 3 0 -1 1 2 -0 2 1 1 1 -1 -3 -1 1 -0 -0 2 -1 -1
1 1 2 1 1 0 4 2 2 1 2 -0 1 2 3 2 2 1 1 3 2 1 4 2 5 3 -0 -3 2 2 1 3 -0 2 1 1 1 -1 -2 0 -0 -0 -1 -0
-0 2 2 1 0 0 4 5 0 -3 2 3 1 3 3 2 2 2 1 1 2 2 2 2 1 -1 -1 -1 3 3 1 2 0 1 -1 -2 0 -0 -1 -1 -1 -1 1 -2
1 2 2 1 0 0 3 3 -0 -3 1 3 1 3 2 2 1 3 2 1 1 2 1 1 1 2 2 2 1 0 1 -1 -2 1 -1 -0 -3 -2 -2 -1 -1 -2 -2 -1
2 2 2 1 -0 -0 3 3 1 -1 1 1 2 4 4 4 4 4 4 3 2 1 -1 2 2 2 2 2 1 -1 -1 -0 1 3 0 -3 -7 -5 -1 1 -2 -2 -2 -1
2 2 2 0 -1 0 3 4 5 2 0 2 2 4 3 4 4 4 4 2 1 -1 -2 1 3 4 1 1 3 1 -1 -2 2 0 -1 -1 -4 -6 -1 -2 3 -2 -1 1
2 3 2 -0 -1 1 3 3 5 3 1 1 3 4 4 2 3 4 3 1 2 -1 0 2 2 1 -1 0 1 4 4 3 3 -1 2 -0 -4 -4 -2 0 1 -4 -0 -0
3 3 2 0 -0 1 2 2 4 3 5 5 4 2 2 2 2 5 3 3 3 1 3 3 2 3 2 1 -0 3 3 4 4 1 2 3 -5 -1 2 -0 -3 -5 -1 -2
3 4 3 1 -0 1 1 4 5 4 4 6 5 4 2 2 1 2 3 2 2 1 3 1 1 3 2 1 3 1 2 2 3 1 2 -3 -4 -1 -2 -2 -2 -4 -2 -1
4 3 3 2 -0 0 3 4 4 4 6 6 6 6 5 2 2 2 2 1 2 0 -1 -1 1 2 1 4 3 2 1 -1 1 0 -1 -2 -3 -4 -4 -4 -3 -3 -1 -1
6 5 1 -0 -0 3 2 3 3 3 3 4 5 6 6 5 3 2 1 1 1 0 -2 -1 1 3 -0 2 1 2 1 0 1 1 -0 -2 -4 -4 -3 -3 -2 -1 -0 0
5 4 3 2 4 3 2 3 -0 0 -4 4 5 5 6 6 5 3 2 1 0 -0 1 1 2 -1 1 1 1 2 0 1 3 3 -3 -3 -3 -2 0 0 1 2 2 2
4 4 3 3 3 3 3 0 -1 -3 -4 1 4 5 6 6 5 4 3 2 2 2 3 3 1 1 1 4 3 0 -0 -1 -1 -1 -1 0 1 1 2 2 1 2 3 3
1 3 4 3 3 1 -3 -3 1 -2 -5 -3 3 3 5 6 6 6 6 5 5 4 4 2 3 3 1 2 4 2 2 2 3 3 3 2 2 3 3 3 3 3 2 0
-1 0 -1 -1 -3 -4 2 4 2 -1 -5 -4 1 1 4 5 6 5 5 6 5 5 4 3 2 3 3 4 2 1 1 1 3 2 3 3 3 3 2 1 -1 -2 -1 -0
-2 -2 -3 -4 -5 -2 4 3 2 -1 -4 0 -1 1 3 4 4 4 4 5 4 4 3 3 4 2 3 -1 -1 -0 1 2 2 3 2 2 1 -1 -2 -2 -1 -1 -1 -2
-1 -3 -3 -0 3 2 2 -1 -0 -0 2 3 1 1 2 3 3 2 3 3 2 4 2 3 3 2 -2 -0 -0 0 1 2 3 2 -1 -0 -1 -1 -1 -2 -2 -3 -4 -5
-0 -0 3 4 3 0 1 2 2 2 2 3 2 3 2 3 3 2 2 2 1 3 2 3 3 2 -2 -1 -1 -0 0 0 0 0 -1 -1 -2 -2 -2 -2 -3 -4 -5 -7
1 2 3 1 2 1 2 2 1 1 2 2 3 3 3 2 3 2 2 2 1 3 1 3 3 -1 -1 -1 -1 -1 -1 -1 -1 -2 -2 -2 -5 -8 -8 -7 -9 -12 -12 -12
2 2 2 2 2 1 0 4 3 2 1 2 2 1 2 2 2 1 2 3 3 1 3 3 1 -1 -1 -1 -1 -1 -1 -3 -6 -7 -7 -6 -6 -7 -9 -12 -12 -12 -12 -12
3 2 2 -1 2 1 1 1 1 -0 1 1 2 1 1 1 1 0 3 0 1 3 2 -0 -1 -2 -2 -1 -1 -3 -7 -8 -8 -7 -7 -8 -10 -12 -12 -12 -12 -12 -11 -11
1 -0 -0 -1 -2 -1 -1 -1 -0 -0 0 1 2 1 1 0 0 -1 0 0 0 -1 -1 -1 -2 -2 -3 -3 -2 -4 -6 -6 -5 -5 -6 -9 -11 -10 -10 -10 -9 -10 -9 -8
-1 -1 -1 -1 -1 -1 -1 -1 -1 -0 0 1 0 -0 0 -0 -0 -0 -0 -0 -1 -1 -1 -2 -2 -2 -2 -2 -3 -5 -5 -5 -7 -10 -9 -8 -9 -9 -8 -7 -7 -7 -7 -7
-2 -1 -1 -1 -1 -1 -1 -1 -0 -0 0 -0 -1 -1 -0 -2 -0 0 -1 -1 -2 -1 -1 -1 -2 -2 -2 -4 -6 -8 -9 -8 -8 -7 -7 -7 -6 -6 -8 -10 -10 -10 -11 -14

GFSNW_850_dewp_033.txt.gz
Dewpoint
-1 -3 -1 -0 6 6 2 5 4 8 3 4 6 5 1 -3 -4 -0 -3 -3 -5 -5 -4 -3 -5 -4 -4 -2 -2 -2 -2 -2 1 0 -2 -2 -2 -2 -2 1 -1 -0 3 -3
-1 -1 0 1 4 6 4 5 5 9 6 7 8 2 -1 -3 -2 -1 -2 -4 -4 -5 -3 -2 -4 -5 2 1 0 -2 -1 -2 1 1 -0 -2 -3 -4 -3 -4 -1 -1 5 -3
-1 1 1 1 4 5 4 4 7 8 8 3 4 3 0 -0 -2 -2 -3 -5 -1 -1 -2 -1 -1 -1 1 1 -0 -1 -1 -2 -0 2 -1 -3 0 -3 -4 -2 1 -2 -3 -6
-2 -0 1 3 4 4 5 4 3 4 7 6 3 1 -1 -1 0 -1 -1 -1 -0 -0 1 1 2 1 1 1 1 -0 1 1 -1 -2 -1 -2 -3 -4 -3 -3 -4 -1 -4 -9
-2 -1 1 3 4 3 6 3 1 2 3 3 2 1 -0 -2 -1 0 1 -1 -2 -2 -0 1 1 2 1 1 2 2 0 2 2 3 0 -1 -1 -2 -5 -5 -5 -6 -7 -6
-2 -2 1 3 5 3 5 5 1 1 4 5 3 2 -1 -2 0 3 -1 -2 -1 0 2 3 2 1 -0 -0 3 3 3 2 2 0 -1 -1 5 1 -2 -5 -6 -5 -2 -5
-2 -1 1 3 4 3 4 5 3 3 7 5 1 -1 -2 -2 1 1 1 0 1 4 2 2 1 1 0 0 1 1 3 3 4 4 4 7 -7 -7 -7 -5 -6 -8 -8 -8
-0 -0 1 3 4 3 5 5 3 2 10 1 -1 -2 -2 -3 1 2 3 4 3 3 2 3 4 5 6 2 -1 -2 -1 1 5 9 -0 -4 -8 -10 -7 -5 -7 -7 -7 -8
-0 0 1 2 3 3 5 7 6 1 7 3 -3 -3 -3 2 4 5 4 4 3 3 4 6 5 5 1 4 4 -1 -1 -0 2 3 9 9 -1 -5 -4 -4 -2 -6 -6 -6
1 1 2 4 3 3 5 9 2 -0 -1 -3 -3 -2 -1 -1 1 3 5 4 4 3 8 10 8 5 1 3 5 7 6 7 8 5 8 3 -4 -5 -3 -0 1 -3 -4 -4
2 3 3 2 3 3 6 9 2 2 4 4 3 0 -1 1 0 7 4 4 4 4 8 10 7 9 3 2 -0 4 5 7 8 6 9 8 -5 -3 -0 1 -4 -4 -2 -3
4 3 2 3 3 4 7 9 4 4 5 7 8 5 3 4 4 2 4 2 4 4 5 9 9 9 7 6 4 -1 3 2 3 2 2 -3 -4 -4 -4 -3 -1 -2 -2 -1
1 1 3 3 2 4 8 8 4 3 8 7 6 6 4 3 5 4 4 6 3 4 5 6 8 9 6 8 5 3 -0 -1 1 0 -4 -5 -4 -3 -2 -2 -1 -0 -0 0
2 3 3 2 2 4 7 8 4 5 6 9 7 6 7 3 2 3 5 4 4 5 5 8 7 9 3 6 3 2 1 -0 -1 0 -2 -3 -3 -1 1 2 2 2 2 3
2 2 2 1 1 3 6 6 4 5 5 8 7 7 6 6 5 3 1 4 3 4 7 7 9 4 5 4 4 4 -0 1 3 3 1 2 1 3 3 3 3 3 3 2
3 3 3 1 1 5 5 4 4 4 6 7 9 7 7 7 6 5 5 5 5 4 7 7 3 3 5 9 5 3 2 2 3 3 3 3 3 1 1 1 1 1 0 -0
4 4 2 1 5 6 5 3 3 3 3 7 8 7 6 6 6 6 6 6 6 6 6 6 6 4 4 7 6 3 2 2 3 2 3 3 1 1 1 1 -0 0 0 -0
4 3 2 2 5 5 3 3 2 2 2 5 7 7 7 6 7 7 6 7 7 6 5 5 5 4 6 7 2 2 2 3 2 1 1 1 1 0 0 -0 -1 -1 -2 -3
4 3 3 4 5 3 2 2 1 -2 5 5 5 7 7 5 5 5 6 6 6 5 6 5 5 5 6 2 1 1 1 2 1 1 1 0 -0 -1 -2 -2 -3 -2 -2 -2
6 5 4 4 4 2 2 1 -1 5 3 3 4 5 6 4 5 4 5 4 6 6 5 4 6 3 0 0 0 1 1 1 1 0 -1 -1 -1 -1 -1 -1 -1 -2 -3 -3
-2 0 4 3 4 3 2 4 5 4 5 3 3 4 4 4 5 4 4 6 5 5 5 5 5 3 -0 -1 -0 -0 0 1 1 -0 -1 -1 -1 -1 -1 -2 -2 -3 -5 -7
-1 1 2 1 3 2 5 4 4 5 4 3 3 3 3 3 4 3 3 4 3 6 2 6 5 1 -1 -1 -0 -0 -1 -1 -1 -1 -2 -2 -3 -3 -4 -6 -5 -8 -10 -11
-1 -0 -1 3 2 6 6 4 5 4 2 2 3 3 3 3 3 3 3 6 6 2 5 4 2 -1 -1 -1 -0 -1 -1 -2 -3 -4 -5 -5 -6 -8 -5 -9 -10 -6 -10 -11
1 2 4 4 4 3 3 3 3 0 1 2 2 2 3 2 3 3 7 2 3 5 5 4 0 -1 -1 -1 -1 -2 -3 -5 -5 -5 -6 -10 -11 -11 -10 -10 -10 -10 -9 -9
1 1 3 2 -1 -1 -1 -0 -0 0 1 2 3 3 3 3 3 3 3 3 4 3 4 1 -1 -1 -1 -1 -2 -4 -5 -5 -3 -4 -9 -10 -10 -8 -8 -10 -9 -8 -9 -13
-1 -1 0 -1 0 -0 -1 -0 -1 0 1 2 3 3 4 3 2 3 5 5 4 2 1 -0 -1 -1 -1 -1 -3 -3 -2 -3 -5 -5 -9 -9 -8 -7 -7 -7 -8 -13 -15 -16
-1 -1 -1 -1 -1 -1 -1 -1 -1 0 1 2 2 5 3 1 2 3 2 4 1 0 -1 -1 -2 -1 -2 -2 -2 -3 -4 -4 -4 -4 -4 -7 -7 -7 -8 -11 -12 -15 -13 -16

GFSNW_850_dewp_036.txt.gz
Dewpoint
0 0 -1 -1 -1 1 5 5 3 2 3 7 3 7 3 0 -1 -4 -3 -4 -6 -6 -4 -4 -6 -5 -4 -5 -5 -2 -4 -2 3 -1 -3 -4 -3 -1 -2 8 2 3 8 3
-2 0 -2 -2 -1 1 5 4 3 6 3 5 5 5 3 -0 -1 -2 -2 -3 -4 -6 -5 -3 -5 -5 1 -0 -2 -1 -0 0 3 -1 -1 -2 -2 -4 -5 -2 2 4 10 3
-1 0 -1 -1 -2 1 5 3 7 9 7 0 3 6 3 1 -1 -4 -3 -3 -5 -4 -4 -4 -3 -4 1 1 0 -1 1 -1 -2 3 -1 -1 1 -2 -5 -3 8 3 2 -5
-2 0 -1 -1 -2 0 5 4 4 6 8 7 4 5 2 1 0 -3 -3 -3 -5 -1 -1 -3 -1 -3 2 1 1 -1 0 -1 -3 -4 -3 -2 -1 -2 -4 -4 -2 2 0 -5
-2 -0 -1 1 -0 1 4 4 3 4 3 4 4 5 4 0 -2 -2 0 -2 -3 -1 -1 -1 -0 -1 2 1 2 1 0 3 2 3 0 -1 -0 -3 -3 -3 -5 -5 -6 -6
-0 -0 0 1 2 2 3 4 4 4 4 5 5 6 4 2 -1 -2 -2 -2 -1 -0 0 2 2 1 0 -1 3 3 3 5 6 6 1 -0 4 1 -1 -3 -5 -5 -2 -3
-0 -2 -1 0 2 2 4 4 5 5 6 4 4 4 2 -0 -0 3 -1 -2 1 3 2 1 1 1 1 1 2 1 4 5 8 9 4 6 -5 -7 -8 -5 -7 -8 -8 -7
-2 -2 -1 -3 -1 2 4 4 6 5 8 3 3 4 2 -1 -3 2 1 4 4 2 2 5 6 6 4 2 -0 -0 1 5 8 10 5 -1 -4 -8 -6 -6 -6 -7 -6 -7
-1 -1 -1 -1 -1 2 3 5 7 8 7 6 1 1 0 2 7 6 4 4 3 2 6 9 7 8 3 2 2 -2 -2 2 8 7 9 8 1 -5 -6 -6 1 -4 -4 -4
-1 -1 -0 -1 0 2 4 5 7 9 6 3 1 1 2 2 6 7 5 5 4 4 11 9 10 7 0 6 7 8 7 8 8 7 9 6 -3 -5 -4 2 4 -3 -2 -3
-2 -1 -1 1 1 3 4 4 7 8 7 1 1 -2 -2 0 4 8 5 6 5 8 10 11 10 10 7 4 0 6 7 9 8 9 8 8 -5 -3 0 2 -2 -2 -2 -2
-1 -1 -0 1 3 4 4 5 7 7 9 7 5 2 2 2 3 5 5 4 4 5 7 9 11 8 8 9 7 -1 5 4 7 6 6 -1 -5 -4 -4 -3 -2 -1 -1 -0
-1 -0 1 2 3 3 4 6 8 8 8 7 5 7 3 3 5 4 5 4 3 3 3 8 10 7 9 8 9 6 -0 -0 4 2 -4 -4 -4 -3 -1 1 2 2 2 2
1 1 3 3 3 3 5 5 7 9 5 9 8 6 4 3 5 5 5 5 4 5 6 9 7 8 4 10 6 6 2 -0 -0 0 -2 -1 1 3 4 3 3 3 3 2
2 3 4 3 3 4 4 6 7 7 6 8 7 7 6 3 4 5 5 6 5 6 8 6 10 5 8 7 7 8 0 1 7 7 2 3 3 2 2 2 2 1 0 -1
3 3 2 4 4 4 5 7 5 4 7 7 9 7 7 6 6 6 6 5 5 5 9 8 5 4 7 9 9 2 2 2 3 3 3 4 2 2 2 1 1 1 0 0
3 3 3 4 4 5 7 5 4 2 7 7 8 7 7 7 7 7 6 6 7 6 7 7 6 4 6 7 9 3 2 2 3 2 3 2 2 2 1 1 0 -0 -1 -2
3 3 4 4 4 5 5 3 3 2 5 7 7 6 7 7 7 7 7 8 7 6 6 6 7 6 7 8 3 2 2 2 2 1 2 1 1 1 0 -0 -1 -2 -2 -2
4 5 4 5 6 6 3 3 3 2 1 7 5 7 7 6 6 6 7 7 6 5 7 6 6 6 7 4 2 2 2 2 1 1 1 1 0 -0 -1 -2 -1 -2 -3 -3
5 5 5 6 5 2 2 2 2 1 5 4 5 6 7 5 5 5 5 5 6 7 5 5 6 3 1 1 1 1 1 2 1 1 0 0 -0 -1 -2 -1 -1 -2 -2 -4
4 4 5 4 3 1 3 3 5 4 6 3 4 4 6 5 5 5 5 6 5 7 5 6 5 4 1 1 1 1 1 1 1 0 -0 -1 -1 -2 -2 -2 -3 -6 -8 -12
3 3 3 1 1 2 4 5 4 5 5 3 4 4 4 4 4 4 4 4 4 6 3 6 5 2 0 1 0 0 0 0 -1 -1 -1 -1 -2 -2 -4 -5 -7 -9 -10 -11
2 1 2 4 3 6 6 5 6 3 2 3 3 3 3 3 3 3 3 4 6 2 6 4 3 0 -0 0 -1 -1 -1 -2 -2 -2 -3 -4 -4 -5 -8 -9 -6 -5 -9 -11
2 3 3 4 4 2 2 2 2 0 2 3 2 3 3 3 3 2 4 2 3 5 5 5 1 -0 0 -0 -1 -2 -2 -4 -5 -5 -5 -11 -12 -11 -10 -11 -10 -9 -9 -10
1 1 2 1 -1 -1 -1 -0 -0 1 2 3 3 3 3 3 3 3 3 3 4 4 4 2 -0 -1 -0 -1 -1 -3 -5 -5 -4 -5 -9 -10 -11 -9 -9 -9 -9 -8 -11 -15
-0 -1 0 -1 0 -0 -1 -0 -1 1 2 3 2 4 4 3 3 3 5 4 5 3 1 -0 -1 -1 -1 -1 -3 -5 -4 -3 -4 -7 -10 -9 -5 -5 -7 -7 -9 -13 -14 -14
-1 -1 -1 -1 -1 -2 -2 -1 -1 1 1 2 3 3 3 1 3 3 3 3 2 0 -0 -1 -1 -1 -1 -2 -2 -2 -2 -4 -4 -4 -5 -5 -6 -6 -8 -9 -11 -13 -12 -13

GFSNW_850_dewp_042.txt.gz
Dewpoint
-1 -4 -5 0 -1 0 0 3 4 4 5 5 4 6 4 3 3 3 4 3 1 -1 -1 -2 -2 -2 -4 -1 1 1 2 4 4 3 0 1 -1 0 1 3 0 3 4 1
-1 -5 -5 0 0 -0 0 3 3 4 5 5 3 3 4 3 2 4 4 3 2 -2 -2 0 0 0 1 0 -1 1 2 4 5 2 0 1 1 -1 0 3 3 3 3 2
-2 -7 -7 -1 1 0 0 2 4 5 6 3 0 3 4 5 2 3 4 5 3 2 -1 -0 1 4 2 2 1 0 -1 2 2 3 0 0 2 1 2 0 3 2 2 0
-3 -8 -7 -2 0 1 0 3 2 3 5 5 1 1 2 4 4 3 3 3 4 4 1 -1 3 4 2 2 -1 0 -0 1 -1 -1 -1 -0 -0 -0 1 -1 -0 1 -1 -0
-5 -8 -9 -4 0 1 1 2 4 3 4 3 3 1 2 2 1 1 1 4 4 2 0 -1 1 3 3 1 1 -0 1 0 -0 1 1 -1 -0 -1 -1 -1 -1 -0 -2 -1
-6 -5 -5 -3 0 2 1 2 2 3 2 4 5 4 2 0 -1 1 -0 2 3 3 1 -1 -2 -1 -0 1 2 3 2 4 3 3 -0 -1 2 -1 -2 -2 -1 -2 -1 -2
-8 -5 -1 -1 -0 1 1 2 3 5 5 5 5 3 1 1 0 -0 2 0 3 1 1 2 2 3 4 4 4 3 4 4 2 3 0 2 1 -3 -3 -2 -3 -4 -4 -3
-10 -3 -1 -1 -0 0 1 2 3 5 4 4 5 4 2 -0 -0 3 -0 2 1 1 2 5 4 4 2 2 2 2 4 3 4 2 3 1 -1 -5 -5 -2 -1 -3 -2 -1
-10 -4 -4 -2 -1 0 0 2 3 4 6 4 3 5 2 2 4 3 4 3 3 3 6 4 4 5 4 4 1 2 3 3 3 4 2 1 -0 -4 -5 -3 2 -1 -1 0
-8 -5 -6 -4 -4 0 0 1 2 3 5 4 4 4 3 1 3 6 7 5 5 5 3 5 4 5 3 4 3 1 3 3 2 1 1 1 -1 -4 -4 -2 -1 -1 -1 -1
-7 -7 -7 -5 -4 -1 0 1 2 2 3 4 6 2 1 1 3 6 6 6 6 6 5 5 4 2 3 4 3 3 2 4 2 4 2 2 -1 -3 -1 -1 -0 -0 -0 1
-4 -5 -5 -4 -3 -2 0 1 2 2 3 4 5 5 5 2 2 4 6 4 5 6 6 5 4 4 2 3 5 3 3 2 3 3 3 1 -2 -1 -1 -1 1 2 1 2
-1 -1 -2 -2 -1 -1 1 1 1 2 2 3 5 6 6 6 1 2 5 5 5 5 6 5 5 3 2 3 3 3 2 3 4 2 4 4 3 2 2 1 2 3 3 3
0 -0 -0 0 0 0 1 1 1 1 4 5 6 7 7 6 1 2 3 2 2 2 6 5 3 4 3 2 2 2 2 1 2 5 4 3 3 3 2 2 2 2 2 2
-0 0 0 0 0 -0 -1 -0 1 3 3 5 5 7 8 7 4 3 3 2 2 5 3 2 4 5 4 2 2 2 1 1 2 3 3 2 3 1 2 2 1 1 1 -0
-0 -0 -0 -0 -0 0 0 1 1 2 4 4 5 5 8 8 5 4 3 2 4 5 5 5 5 6 2 1 1 3 3 3 -0 3 3 2 1 1 1 1 0 -0 -0 -1
-1 -1 -1 -1 -1 -1 1 2 1 1 3 4 4 5 8 8 8 8 8 7 7 5 7 6 4 5 3 1 3 3 3 3 3 3 2 1 1 1 0 0 0 -0 -1 -2
-1 -1 -1 1 1 2 2 3 5 3 4 4 4 5 6 7 7 7 8 7 6 5 6 6 2 5 2 3 3 3 3 3 2 2 3 2 1 1 0 -0 -2 -2 -4 -5
-2 -2 1 2 3 4 2 1 5 4 4 4 3 5 6 6 5 6 6 5 4 5 3 3 3 1 3 3 3 2 2 2 2 2 2 1 1 -1 -2 -2 -3 -4 -4 -4
1 1 2 3 3 2 4 3 5 5 4 4 3 5 5 5 4 3 3 4 3 5 3 4 2 2 1 2 2 2 2 2 2 1 0 -0 -1 -2 -2 -4 -4 -4 -4 -4
2 4 4 5 3 3 3 4 3 3 2 3 4 5 4 5 3 3 3 3 1 4 3 3 4 3 1 2 2 2 1 1 1 1 1 0 -1 -2 -3 -2 -3 -3 -6 -10
4 3 4 5 4 3 2 2 1 2 3 2 3 4 4 5 3 3 2 2 1 4 2 3 4 0 1 1 2 1 1 1 0 0 -0 -1 -2 -2 -2 -3 -4 -7 -12 -13
4 4 3 2 1 2 -0 2 3 2 1 3 3 2 3 2 2 2 2 1 2 0 3 1 0 1 1 1 1 1 1 0 -0 -1 -1 -1 -1 -2 -3 -5 -10 -12 -12 -11
2 1 1 1 1 0 0 1 1 0 1 3 3 2 2 2 2 1 3 2 2 2 1 0 0 1 1 1 1 0 -0 -0 -1 -1 -2 -2 -3 -4 -7 -11 -11 -12 -12 -14
-0 -0 0 -0 -1 -1 -1 -0 0 1 2 3 2 2 2 1 2 1 2 2 2 1 -0 1 0 1 0 -0 -1 -1 -1 -1 -2 -2 -3 -3 -3 -5 -7 -6 -9 -10 -12 -14
-1 -2 -0 -1 0 -1 -1 -1 -0 1 2 2 2 1 2 2 1 2 2 1 1 2 -0 -0 0 -1 -1 -1 -2 -2 -3 -2 -2 -3 -5 -6 -8 -7 -7 -8 -10 -12 -13 -13
-2 -2 -2 -1 -2 -2 -2 -1 -1 1 1 1 -0 1 2 0 2 1 1 0 -0 -1 -1 -0 -0 -1 -1 -2 -2 -2 -2 -3 -5 -5 -6 -9 -8 -9 -9 -10 -11 -12 -12 -13

GFSNW_850_dewp_045.txt.gz
Dewpoint
-4 -3 0 -2 -2 -0 1 1 2 2 2 5 4 3 3 2 2 2 4 4 5 3 -1 -1 -2 -2 -4 -6 -1 -1 1 1 2 1 -0 -0 -1 0 -0 3 1 3 4 2
-2 -3 0 -1 -2 -0 2 0 2 3 2 6 4 2 1 3 2 3 3 4 3 2 -1 -1 -1 -2 -1 1 -1 1 2 2 3 1 -0 1 1 1 2 2 2 3 3 2
-3 -0 0 -3 -4 0 1 0 3 4 4 2 2 3 3 4 2 2 2 4 4 3 1 -1 1 2 1 1 -0 -2 -0 2 1 2 0 1 2 1 0 2 4 2 2 -0
-1 -0 -0 -3 -6 -0 1 1 0 2 5 4 3 2 2 4 4 2 1 2 5 5 4 -1 2 3 3 1 0 1 0 1 0 -1 -2 -1 -0 0 2 0 -0 2 0 1
-1 -0 -1 -2 -5 -3 1 -0 2 2 3 2 3 3 2 3 3 3 3 2 3 1 4 2 2 3 2 2 1 0 0 1 -1 1 -0 -1 0 -1 -0 -0 -1 -0 -1 -1
-2 -1 -1 -4 -6 -2 1 0 0 2 2 3 3 2 1 1 1 2 1 2 4 4 3 2 0 -0 0 0 2 1 1 3 1 1 -0 -1 2 -0 -1 -1 -1 -1 -1 -2
-1 -1 -1 -6 -8 -4 0 -0 1 3 2 3 2 1 1 1 1 1 1 -1 0 2 1 2 2 3 3 3 3 1 3 2 1 2 1 2 -1 -2 -3 -2 -3 -4 -3 -2
-1 -2 -3 -6 -8 -4 -0 1 2 4 3 2 3 2 1 0 -0 0 -1 -1 -5 -3 1 4 4 3 3 1 3 4 3 2 3 3 3 1 -1 -3 -2 -3 -2 -3 -2 -1
-2 -2 -6 -8 -8 -4 -2 1 1 3 4 3 2 3 2 2 2 1 0 -0 -3 1 5 3 5 6 5 4 2 2 1 2 3 2 2 3 1 -3 -5 -3 1 -2 -1 -0
-4 -5 -7 -6 -4 -3 -1 0 2 3 3 3 3 4 3 1 1 2 2 2 5 4 4 4 4 4 3 4 4 2 3 2 4 1 1 2 -2 -3 -4 -2 -2 -2 -1 -1
-8 -9 -4 -2 -3 -2 -1 -0 2 2 2 3 4 3 3 3 1 3 5 5 6 4 5 5 4 3 4 3 2 2 4 4 2 1 -0 2 -3 -3 -3 -2 -1 -1 -1 -1
-7 -10 -5 -1 -1 -1 -1 -0 1 1 2 3 3 4 4 4 3 1 5 4 5 5 5 5 4 4 1 3 4 2 2 3 4 2 2 -1 0 -2 -2 -2 -2 -0 -0 0
-8 -6 -4 -4 -2 -1 -0 0 1 1 2 2 2 2 3 4 5 2 3 6 5 4 4 5 4 4 2 3 3 3 2 2 3 2 3 4 3 1 -1 -1 -1 0 1 1
-5 -6 -6 -6 -4 -3 -2 -0 1 1 3 2 2 6 7 6 7 4 3 1 4 6 5 5 4 3 2 1 2 3 2 2 4 4 4 3 3 2 1 2 2 2 2 1
-7 -7 -8 -7 -7 -3 -1 -0 0 1 1 3 4 3 5 6 5 5 2 4 4 5 4 2 3 4 4 2 2 2 1 2 3 3 3 2 2 2 2 2 2 2 2 1
-1 -2 -3 -5 -4 -3 -0 1 1 1 3 2 3 4 5 7 8 7 3 2 4 4 2 4 5 6 3 3 3 2 2 0 -0 1 3 2 2 1 1 2 1 1 1 0
-1 -2 -2 -2 -0 1 0 -1 -2 -4 2 4 3 3 5 8 7 7 6 6 6 5 5 4 4 5 2 1 3 2 3 3 1 1 2 1 1 1 1 1 -0 -1 -1 -2
-0 -0 -0 -0 -1 -0 -0 2 2 -3 1 3 3 4 5 7 7 6 8 6 6 5 5 5 3 5 1 3 3 3 3 2 2 2 2 1 1 0 -0 -0 -1 -1 -2 -2
-1 -0 -1 -1 -1 -1 -1 4 3 1 1 3 2 4 5 6 5 6 6 6 4 5 3 3 4 2 4 2 3 3 2 2 2 2 2 1 1 0 -0 -1 -1 -2 -3 -4
-0 0 1 1 0 -2 -0 2 2 2 4 3 2 4 5 5 4 2 3 4 3 5 4 4 3 3 2 2 2 3 2 2 2 1 -1 0 -0 -1 -1 -2 -3 -4 -4 -4
1 1 1 3 3 2 2 2 3 3 2 3 3 4 4 4 4 3 3 3 2 5 4 4 4 4 1 2 2 2 2 2 2 2 1 1 1 -1 -2 -3 -4 -5 -5 -5
2 3 2 2 2 2 1 1 1 1 3 2 2 4 4 4 4 2 2 3 2 4 2 4 5 1 1 2 2 1 2 2 1 1 1 -0 -1 -2 -3 -4 -4 -4 -6 -10
4 2 2 2 1 2 3 3 2 2 1 2 3 2 3 2 2 -0 -1 -1 0 0 3 4 1 1 2 2 1 1 1 1 1 0 -0 -1 -2 -3 -3 -3 -4 -5 -12 -12
2 1 0 1 0 0 -0 1 1 0 1 2 2 1 1 2 1 -0 1 2 1 1 0 -0 0 1 1 2 1 1 0 0 -0 -1 -1 -1 -2 -2 -2 -4 -5 -11 -13 -14
0 -0 0 -0 -1 -1 -1 -1 -0 0 2 3 2 2 1 1 2 1 2 2 2 -1 -1 -0 0 1 1 1 1 0 0 -0 -1 -1 -1 -1 -2 -3 -6 -10 -12 -12 -13 -15
-2 -2 -1 -1 -1 -1 -1 -1 -1 0 2 2 1 -0 1 2 1 2 2 1 2 1 -1 -1 -0 -0 0 0 -0 -0 -1 -1 -1 -1 -2 -3 -3 -5 -6 -8 -11 -12 -14 -14
-2 -2 -2 -2 -2 -2 -2 -2 -2 0 1 1 -0 2 1 0 1 1 0 -0 -1 -1 -1 -1 -0 -0 -1 -1 -1 -1 -1 -2 -2 -3 -4 -4 -5 -5 -6 -9 -12 -13 -13 -13